Regional Weather Roundup
Issued by NWS Portland, ME

Home | Current Version | Previous Version | Text Only | Print | Product List | Glossary On
Versions: 1 2 3 4 5 6 7 8 9 10 11 12 13 14 15 16 17 18 19 20 21 22 23 24 25 26 27 28 29 30 31 32 33 34 35 36 37 38 39 40 41 42 43 44 45 46 47 48 49 50
000
ASUS41 KGYX 030510
RWRGYX
WEATHER ROUNDUP FOR MAINE AND NEW HAMPSHIRE
NATIONAL WEATHER SERVICE GRAY ME
100 AM EDT TUE MAY 03 2016

MEZ002-005-006-010-012-015-018-020-021-024-026-027-029-030600-
MAINE

CITY           SKY/WX    TMP DP  RH WIND       PRES   REMARKS
PORTLAND       CLOUDY    43  40  89 NW9       29.93S
SANFORD        MOCLDY    43  37  81 N6        29.92F
BAR HARBOR     LGT RAIN  42  42 100 N8        29.87S FOG
WISCASSET      CLOUDY    43  41  93 VRB6      29.91F
ROCKLAND       CLOUDY    42  41  96 VRB3      29.88F
FRYEBURG       CLOUDY    41  40  96 CALM      29.91F
LEWISTONAUBURN CLOUDY    41  37  87 N7        29.91F
AUGUSTA        CLOUDY    40  39  97 N10       29.91F
WATERVILLE     CLOUDY    40  39  97 N9        29.88F
BANGOR         CLOUDY    44  40  85 N13       29.89F
GREENVILLE       N/A     35  35 100 NW5       29.87F
MILLINOCKET    NOT AVBL
HOULTON        LGT RAIN  40  38  93 N3        29.89F
PRESQUE ISLE   LGT RAIN  40  38  93 N7        29.93F
FRENCHVILLE    LGT RAIN  38  35  89 N7        29.92F FOG
CARIBOU        LGT RAIN  40  38  93 N6        29.92F
$$

NHZ002-005-008-009-011-012-014-030600-
NEW HAMPSHIRE

CITY           SKY/WX    TMP DP  RH WIND       PRES   REMARKS
PORTSMOUTH     CLOUDY    43  40  89 W5        29.92S
ROCHESTER      CLOUDY    42  39  89 NW5       29.91F
NASHUA         CLOUDY    44  44 100 CALM      29.94S
MANCHESTER     CLOUDY    45  43  93 CALM      29.93R
CONCORD        FOG       41  40  96 CALM      29.93F VSB 1/2
LACONIA        CLOUDY    43  39  87 CALM      29.92F
PLYMOUTH       CLOUDY    44  43  97 CALM      29.93S
BERLIN         CLOUDY    41  38  89 CALM      29.90F
WHITEFIELD     CLOUDY    42  39  89 CALM      29.92S
JAFFREY        FOG       43  42  97 CALM      29.92S VSB 3/4
KEENE          CLOUDY    45  43  93 CALM      29.94S
LEBANON        CLOUDY    44  42  93 NE3       29.91F FOG
MT WASHINGTON  FRZ DRZL  27  27 100 W24         N/A  VSB 0   WCI  12
$$

VTZ005-007-008-030600-
VERMONT

CITY           SKY/WX    TMP DP  RH WIND       PRES   REMARKS
ST JOHNSBURY     N/A     45  42  89 MISG      29.91F
MONTPELIER     CLOUDY    42  40  92 W10       29.96S
BURLINGTON     CLOUDY    45  41  86 N6        29.96S
$$

MAZ007-012-024-CTZ003-RIZ002-NYZ038-NYZ072-030600-
SOUTHERN NEW ENGLAND AND NY

CITY           SKY/WX    TMP DP  RH WIND       PRES   REMARKS
BOSTON         CLOUDY    47  43  86 N3        29.94F
WORCESTER      CLOUDY    45  44  97 CALM      29.93S
NANTUCKET      CLOUDY    49  45  86 N9        29.93F
PROVIDENCE     CLOUDY    50  46  86 NE3       29.95S
HARTFORD       CLOUDY    48  47  96 W3        29.93F
ALBANY         DRIZZLE   49  46  90 NW3       29.95S
NEW YORK CITY  LGT RAIN  55  51  86 E6        29.91F
$$

ANZ081-ANZ082-ANZ150-NHZ014-MEZ023>029-030600-
COASTAL MARINE OBSERVATIONS

STATION/POSITION TIME  TEMP    WIND        PRES    WAVE
                       AIR SEA DIR/SP/G            HT/PER
                 (UTC) (F)     (DEG/KT/KT) (MB)    (FT/S)
MOUNT DESERT ROC 0500   41     360/ 21/ 23 1010.4R
MATINICUS ROCK   0400   42     340/ 15/ 17 1011.3R
ISLE OF SHOALS   0400   45     330/ 13/ 13 1012.7F
CASHES LEDGE BUO 0450   44 44  330/ 17/ 21 1010.6F   5/ 8
GEORGES BANK BUO 0450   49 47              1011.8R   7/ 8
$$

.............KEY..............
   WCI - WIND CHILL
   TC  - TEMPERATURE IN CELSIUS
   VSB - VISIBILITY IN MILES
   HX  - HEAT INDEX
   FAIR- INDICATES FEW OR NO CLOUDS BELOW 12,000 FT, WITH NO
         SIGNIFICANT WEATHER AND/OR OBSTRUCTIONS TO VISIBILITY.






USA.gov is the U.S. government's official web portal to all federal, state and local government web resources and services.